User: anonymous   Login
Location: Twentynine Palms Airport
(34.1316°N, 115.9458°W)
Time: 06:06:57
(UTC-07:00)
Language:

Oscar 19 - Orbit

View from above orbital plane
View from above orbital plane
View from above satellite
View from above satellite

Ground track
Ground track

The orbit data is extracted from the following two-line orbital elements,

1 20442U 90005G   16211.38396658 -.00000021  00000-0  83809-5 0  9992
2 20442  98.5442 145.7414 0012361  26.9127 333.2696 14.32823648385393
Epoch (UTC): 29 July 2016 09:12:54
Eccentricity: 0.0012361
inclination: 98.5442°
perigee height: 773 km
apogee height: 791 km
right ascension of ascending node: 145.7414°
argument of perigee: 26.9127°
revolutions per day: 14.32823648
mean anomaly at epoch: 333.2696°
orbit number at epoch: 38539

The dashed part of the orbit path shows where the satellite is in the earth's shadow,  

DLR